Time,TemperatureF,DewpointF,PressureIn,WindDirection,WindDirectionDegrees,WindSpeedMPH,WindSpeedGustMPH,Humidity,HourlyPrecipIn,Conditions,Clouds,dailyrainin,SoftwareType,DateUTC
2013-05-25 00:13:00,46.2,45.0,29.84,NNE,30,2.0,-999.0,96,-99.99,,,0.01,weatherlink.com 1.10,2013-05-25 04:13:00,
2013-05-25 00:28:00,46.4,45.0,29.83,NNW,340,0.0,-999.0,96,-99.99,,,0.02,weatherlink.com 1.10,2013-05-25 04:28:00,
2013-05-25 00:43:00,46.4,45.0,29.82,NNW,344,0.0,-999.0,96,-99.99,,,0.02,weatherlink.com 1.10,2013-05-25 04:43:00,
2013-05-25 00:59:00,46.3,45.0,29.83,NNW,327,0.0,-999.0,96,-99.99,,,0.03,weatherlink.com 1.10,2013-05-25 04:59:00,
2013-05-25 01:14:00,46.4,46.0,29.82,NNW,337,0.0,-999.0,97,-99.99,,,0.03,weatherlink.com 1.10,2013-05-25 05:14:00,
2013-05-25 01:29:00,46.3,46.0,29.82,NNW,336,0.0,-999.0,97,-99.99,,,0.03,weatherlink.com 1.10,2013-05-25 05:29:00,
2013-05-25 01:44:00,46.3,46.0,29.81,NNW,336,0.0,-999.0,97,-99.99,,,0.05,weatherlink.com 1.10,2013-05-25 05:44:00,
2013-05-25 01:59:00,46.3,45.0,29.80,NNW,344,2.0,-999.0,96,-99.99,,,0.05,weatherlink.com 1.10,2013-05-25 05:59:00,
2013-05-25 02:14:00,46.3,46.0,29.82,NNW,348,0.0,-999.0,97,-99.99,,,0.05,weatherlink.com 1.10,2013-05-25 06:14:00,
2013-05-25 02:29:00,46.3,46.0,29.81,NNW,344,0.0,-999.0,97,-99.99,,,0.06,weatherlink.com 1.10,2013-05-25 06:29:00,
2013-05-25 02:44:00,46.3,46.0,29.81,NNW,344,0.0,-999.0,97,-99.99,,,0.06,weatherlink.com 1.10,2013-05-25 06:44:00,
2013-05-25 02:59:00,46.1,45.0,29.82,WNW,296,0.0,-999.0,97,-99.99,,,0.07,weatherlink.com 1.10,2013-05-25 06:59:00,
2013-05-25 03:14:00,46.1,45.0,29.81,WNW,296,0.0,-999.0,97,-99.99,,,0.07,weatherlink.com 1.10,2013-05-25 07:14:00,
2013-05-25 03:29:00,46.0,45.0,29.80,NW,316,2.0,-999.0,97,-99.99,,,0.08,weatherlink.com 1.10,2013-05-25 07:29:00,
2013-05-25 03:44:00,45.9,45.0,29.80,NW,315,0.0,-999.0,97,-99.99,,,0.08,weatherlink.com 1.10,2013-05-25 07:44:00,
2013-05-25 03:59:00,45.9,45.0,29.79,NW,319,0.0,-999.0,97,-99.99,,,0.09,weatherlink.com 1.10,2013-05-25 07:59:00,
2013-05-25 04:15:00,45.8,45.0,29.80,NW,313,0.0,-999.0,97,-99.99,,,0.09,weatherlink.com 1.10,2013-05-25 08:15:00,
2013-05-25 04:30:00,45.7,45.0,29.80,NW,325,0.0,-999.0,97,-99.99,,,0.13,weatherlink.com 1.10,2013-05-25 08:30:00,
2013-05-25 04:45:00,45.6,45.0,29.80,West,269,0.0,-999.0,97,-99.99,,,0.16,weatherlink.com 1.10,2013-05-25 08:45:00,
2013-05-25 05:01:00,45.5,45.0,29.79,NNE,15,0.0,-999.0,97,-99.99,,,0.22,weatherlink.com 1.10,2013-05-25 09:01:00,
2013-05-25 05:15:00,45.5,45.0,29.79,NE,34,1.0,-999.0,97,-99.99,,,0.24,weatherlink.com 1.10,2013-05-25 09:15:00,
2013-05-25 05:30:00,45.5,45.0,29.79,NW,310,0.0,-999.0,97,-99.99,,,0.24,weatherlink.com 1.10,2013-05-25 09:30:00,
2013-05-25 05:45:00,45.3,45.0,29.80,WNW,286,0.0,-999.0,97,-99.99,,,0.24,weatherlink.com 1.10,2013-05-25 09:45:00,
2013-05-25 06:01:00,45.4,45.0,29.78,NW,305,2.0,-999.0,97,-99.99,,,0.24,weatherlink.com 1.10,2013-05-25 10:01:00,
2013-05-25 06:15:00,45.3,45.0,29.78,NW,318,0.0,-999.0,97,-99.99,,,0.25,weatherlink.com 1.10,2013-05-25 10:15:00,
2013-05-25 06:30:00,45.3,45.0,29.78,WNW,295,0.0,-999.0,97,-99.99,,,0.25,weatherlink.com 1.10,2013-05-25 10:30:00,
2013-05-25 06:45:00,45.3,45.0,29.78,North,350,0.0,-999.0,97,-99.99,,,0.28,weatherlink.com 1.10,2013-05-25 10:45:00,
2013-05-25 07:01:00,45.2,44.0,29.79,West,265,0.0,-999.0,97,-99.99,,,0.32,weatherlink.com 1.10,2013-05-25 11:01:00,
2013-05-25 07:15:00,45.4,45.0,29.78,NW,321,0.0,-999.0,97,-99.99,,,0.33,weatherlink.com 1.10,2013-05-25 11:15:00,
2013-05-25 07:30:00,45.6,45.0,29.79,West,260,0.0,-999.0,97,-99.99,,,0.33,weatherlink.com 1.10,2013-05-25 11:30:00,
2013-05-25 07:45:00,45.8,45.0,29.79,WSW,255,1.0,-999.0,97,-99.99,,,0.33,weatherlink.com 1.10,2013-05-25 11:45:00,
2013-05-25 08:01:00,45.9,45.0,29.79,NW,319,0.0,-999.0,97,-99.99,,,0.33,weatherlink.com 1.10,2013-05-25 12:01:00,
2013-05-25 08:16:00,46.4,46.0,29.79,West,277,2.0,-999.0,97,-99.99,,,0.33,weatherlink.com 1.10,2013-05-25 12:16:00,
2013-05-25 08:31:00,46.5,46.0,29.79,West,269,1.0,-999.0,97,-99.99,,,0.34,weatherlink.com 1.10,2013-05-25 12:31:00,
2013-05-25 08:46:00,46.6,46.0,29.78,NW,324,1.0,-999.0,96,-99.99,,,0.34,weatherlink.com 1.10,2013-05-25 12:46:00,
2013-05-25 09:01:00,46.6,46.0,29.78,NNW,338,0.0,-999.0,96,-99.99,,,0.35,weatherlink.com 1.10,2013-05-25 13:01:00,
2013-05-25 09:16:00,46.4,45.0,29.78,WSW,252,0.0,-999.0,96,-99.99,,,0.35,weatherlink.com 1.10,2013-05-25 13:16:00,
2013-05-25 09:31:00,46.4,45.0,29.77,SW,218,2.0,-999.0,96,-99.99,,,0.36,weatherlink.com 1.10,2013-05-25 13:31:00,
2013-05-25 09:46:00,46.5,46.0,29.76,NNE,30,1.0,-999.0,97,-99.99,,,0.38,weatherlink.com 1.10,2013-05-25 13:46:00,
2013-05-25 10:02:00,46.5,46.0,29.77,North,11,1.0,-999.0,96,-99.99,,,0.38,weatherlink.com 1.10,2013-05-25 14:02:00,
2013-05-25 10:17:00,46.6,46.0,29.77,ENE,68,0.0,-999.0,96,-99.99,,,0.39,weatherlink.com 1.10,2013-05-25 14:17:00,
2013-05-25 10:32:00,46.5,46.0,29.77,NNE,29,0.0,-999.0,96,-99.99,,,0.41,weatherlink.com 1.10,2013-05-25 14:32:00,
2013-05-25 10:47:00,46.5,46.0,29.77,NNE,24,0.0,-999.0,96,-99.99,,,0.41,weatherlink.com 1.10,2013-05-25 14:47:00,
2013-05-25 11:02:00,46.9,46.0,29.76,NNW,348,1.0,-999.0,96,-99.99,,,0.43,weatherlink.com 1.10,2013-05-25 15:02:00,
2013-05-25 11:17:00,46.9,46.0,29.76,NNW,342,2.0,-999.0,96,-99.99,,,0.43,weatherlink.com 1.10,2013-05-25 15:17:00,
2013-05-25 11:32:00,47.0,46.0,29.76,WNW,303,4.0,-999.0,96,-99.99,,,0.43,weatherlink.com 1.10,2013-05-25 15:32:00,
2013-05-25 11:47:00,47.0,46.0,29.76,WNW,301,0.0,-999.0,95,-99.99,,,0.43,weatherlink.com 1.10,2013-05-25 15:47:00,
2013-05-25 12:02:00,47.1,46.0,29.75,North,355,2.0,-999.0,95,-99.99,,,0.43,weatherlink.com 1.10,2013-05-25 16:02:00,
2013-05-25 12:17:00,47.4,46.0,29.74,NNW,344,2.0,-999.0,95,-99.99,,,0.43,weatherlink.com 1.10,2013-05-25 16:17:00,
2013-05-25 12:32:00,47.7,46.0,29.74,North,5,4.0,-999.0,95,-99.99,,,0.43,weatherlink.com 1.10,2013-05-25 16:32:00,
2013-05-25 12:47:00,47.8,46.0,29.74,WSW,251,5.0,-999.0,94,-99.99,,,0.43,weatherlink.com 1.10,2013-05-25 16:47:00,
2013-05-25 13:03:00,47.3,46.0,29.74,WNW,292,1.0,-999.0,94,-99.99,,,0.43,weatherlink.com 1.10,2013-05-25 17:03:00,
2013-05-25 13:18:00,47.2,46.0,29.74,ESE,117,2.0,-999.0,95,-99.99,,,0.43,weatherlink.com 1.10,2013-05-25 17:18:00,
2013-05-25 13:33:00,46.9,45.0,29.74,North,5,0.0,-999.0,94,-99.99,,,0.43,weatherlink.com 1.10,2013-05-25 17:33:00,
2013-05-25 13:48:00,47.1,46.0,29.75,West,280,1.0,-999.0,95,-99.99,,,0.43,weatherlink.com 1.10,2013-05-25 17:48:00,
2013-05-25 14:03:00,46.7,45.0,29.75,North,5,0.0,-999.0,94,-99.99,,,0.44,weatherlink.com 1.10,2013-05-25 18:03:00,
2013-05-25 14:18:00,46.3,45.0,29.75,NNW,334,1.0,-999.0,94,-99.99,,,0.44,weatherlink.com 1.10,2013-05-25 18:18:00,
2013-05-25 14:33:00,45.6,44.0,29.75,WNW,292,10.0,-999.0,94,-99.99,,,0.44,weatherlink.com 1.10,2013-05-25 18:33:00,
2013-05-25 14:48:00,45.0,43.0,29.75,NW,309,3.0,-999.0,94,-99.99,,,0.44,weatherlink.com 1.10,2013-05-25 18:48:00,
2013-05-25 15:04:00,44.8,44.0,29.74,ENE,72,8.0,-999.0,95,-99.99,,,0.44,weatherlink.com 1.10,2013-05-25 19:04:00,
2013-05-25 15:19:00,44.4,43.0,29.74,NNE,21,0.0,-999.0,94,-99.99,,,0.44,weatherlink.com 1.10,2013-05-25 19:19:00,
2013-05-25 15:34:00,44.4,43.0,29.74,NNW,327,2.0,-999.0,94,-99.99,,,0.44,weatherlink.com 1.10,2013-05-25 19:34:00,
2013-05-25 15:49:00,43.8,42.0,29.74,NNE,28,1.0,-999.0,92,-99.99,,,0.44,weatherlink.com 1.10,2013-05-25 19:49:00,
2013-05-25 16:04:00,43.5,42.0,29.74,NW,314,5.0,-999.0,93,-99.99,,,0.44,weatherlink.com 1.10,2013-05-25 20:04:00,
2013-05-25 16:19:00,43.2,41.0,29.74,NNE,14,2.0,-999.0,92,-99.99,,,0.44,weatherlink.com 1.10,2013-05-25 20:19:00,
2013-05-25 16:34:00,42.5,40.0,29.74,SW,233,9.0,-999.0,92,-99.99,,,0.44,weatherlink.com 1.10,2013-05-25 20:34:00,
2013-05-25 16:49:00,42.2,40.0,29.74,West,261,1.0,-999.0,92,-99.99,,,0.44,weatherlink.com 1.10,2013-05-25 20:49:00,
2013-05-25 17:04:00,42.1,40.0,29.74,West,273,10.0,-999.0,92,-99.99,,,0.44,weatherlink.com 1.10,2013-05-25 21:04:00,
2013-05-25 17:19:00,42.0,40.0,29.75,North,350,1.0,-999.0,91,-99.99,,,0.44,weatherlink.com 1.10,2013-05-25 21:19:00,
2013-05-25 17:34:00,42.2,40.0,29.74,North,351,4.0,-999.0,91,-99.99,,,0.44,weatherlink.com 1.10,2013-05-25 21:34:00,
2013-05-25 17:49:00,42.3,40.0,29.74,West,273,4.0,-999.0,90,-99.99,,,0.44,weatherlink.com 1.10,2013-05-25 21:49:00,
2013-05-25 18:05:00,42.6,40.0,29.74,North,355,10.0,-999.0,89,-99.99,,,0.44,weatherlink.com 1.10,2013-05-25 22:05:00,
2013-05-25 18:20:00,42.8,40.0,29.74,NNW,331,0.0,-999.0,88,-99.99,,,0.44,weatherlink.com 1.10,2013-05-25 22:20:00,
2013-05-25 18:35:00,42.7,39.0,29.74,NNW,342,2.0,-999.0,88,-99.99,,,0.44,weatherlink.com 1.10,2013-05-25 22:35:00,
2013-05-25 18:50:00,42.6,39.0,29.75,East,96,0.0,-999.0,87,-99.99,,,0.44,weatherlink.com 1.10,2013-05-25 22:50:00,
2013-05-25 19:05:00,42.6,39.0,29.75,NW,308,4.0,-999.0,86,-99.99,,,0.44,weatherlink.com 1.10,2013-05-25 23:05:00,
2013-05-25 19:20:00,42.4,39.0,29.75,NE,42,5.0,-999.0,86,-99.99,,,0.44,weatherlink.com 1.10,2013-05-25 23:20:00,
2013-05-25 19:35:00,42.3,38.0,29.75,North,10,3.0,-999.0,86,-99.99,,,0.44,weatherlink.com 1.10,2013-05-25 23:35:00,
2013-05-25 19:50:00,42.2,38.0,29.75,SW,232,4.0,-999.0,86,-99.99,,,0.44,weatherlink.com 1.10,2013-05-25 23:50:00,
2013-05-25 20:05:00,41.9,38.0,29.75,NW,320,4.0,-999.0,87,-99.99,,,0.44,weatherlink.com 1.10,2013-05-26 00:05:00,
2013-05-25 20:20:00,41.4,38.0,29.75,WSW,253,3.0,-999.0,88,-99.99,,,0.44,weatherlink.com 1.10,2013-05-26 00:20:00,
2013-05-25 20:35:00,40.9,38.0,29.75,NNW,338,10.0,-999.0,90,-99.99,,,0.44,weatherlink.com 1.10,2013-05-26 00:35:00,
2013-05-25 20:50:00,40.5,38.0,29.76,NNW,347,5.0,-999.0,91,-99.99,,,0.44,weatherlink.com 1.10,2013-05-26 00:50:00,
2013-05-25 21:06:00,40.0,38.0,29.76,NNE,32,1.0,-999.0,92,-99.99,,,0.45,weatherlink.com 1.10,2013-05-26 01:06:00,
2013-05-25 21:21:00,39.5,37.0,29.76,NNE,30,0.0,-999.0,92,-99.99,,,0.45,weatherlink.com 1.10,2013-05-26 01:21:00,
2013-05-25 21:36:00,39.1,37.0,29.76,WNW,285,0.0,-999.0,92,-99.99,,,0.45,weatherlink.com 1.10,2013-05-26 01:36:00,
2013-05-25 21:51:00,38.7,37.0,29.76,NW,309,6.0,-999.0,92,-99.99,,,0.45,weatherlink.com 1.10,2013-05-26 01:51:00,
2013-05-25 22:06:00,37.9,36.0,29.77,NW,310,1.0,-999.0,93,-99.99,,,0.46,weatherlink.com 1.10,2013-05-26 02:06:00,
2013-05-25 22:21:00,36.8,35.0,29.77,NNW,338,5.0,-999.0,93,-99.99,,,0.49,weatherlink.com 1.10,2013-05-26 02:21:00,
2013-05-25 22:36:00,35.7,34.0,29.76,NNW,333,4.0,-999.0,94,-99.99,,,0.52,weatherlink.com 1.10,2013-05-26 02:36:00,
2013-05-25 22:51:00,35.6,34.0,29.76,SSE,155,7.0,-999.0,95,-99.99,,,0.54,weatherlink.com 1.10,2013-05-26 02:51:00,
2013-05-25 23:07:00,36.2,35.0,29.75,NW,319,1.0,-999.0,95,-99.99,,,0.54,weatherlink.com 1.10,2013-05-26 03:07:00,
2013-05-25 23:22:00,36.6,35.0,29.74,SSW,205,1.0,-999.0,95,-99.99,,,0.56,weatherlink.com 1.10,2013-05-26 03:22:00,
2013-05-25 23:37:00,36.5,35.0,29.74,NW,305,1.0,-999.0,95,-99.99,,,0.58,weatherlink.com 1.10,2013-05-26 03:37:00,
2013-05-25 23:52:00,36.4,35.0,29.74,North,11,1.0,-999.0,95,-99.99,,,0.61,weatherlink.com 1.10,2013-05-26 03:52:00,